[[{"header":{"parameterUnit":"m.s-1","parameterCategory":1,"la1":30.2991,"la2":30.254,"lo1":-89.0895,"lo2":-89.0444,"dy":0.0017,"dx":0.0017,"nx":28,"ny":28,"refTime":"2025-01-06T03:00:00:Z","depth":0,"parameterNumber":2,"parameterNumberName":"U-component_of_WINDS"},"data":[0,0,0,0,0,0,0,0,0,0,0,0,0,0,0,0,0,0,0,0,0,0,0,0,0,0,0,0,0,0,0,0,0,0,0,0,0,0,0,0,0,0,0,0,0,0,0,0,0,0,0,0,0,0,0,0,0,0,-0.4002,-0.4002,0,-0.4036,-0.4036,-0.4036,-0.402,-0.4019,-0.4018,-0.4017,-0.4054,-0.4055,-0.4057,0,0,0,0,0,0,0,0,0,0,0,0,0,-0.3923,-0.3924,-0.4002,-0.4002,-0.4002,-0.4036,-0.4036,-0.4036,-0.402,-0.4019,-0.4018,-0.4017,-0.4053,-0.4055,-0.4057,0,0,0,0,0,0,0,0,0,0,0,0,0,-0.3957,-0.3925,-0.4001,-0.3998,-0.3998,-0.4035,-0.4036,-0.4037,-0.402,-0.4019,-0.4018,-0.4016,-0.4052,-0.4055,-0.4057,-0.41,0,0,-0.4066,-0.4067,0,0,0,0,0,0,0,0,-0.3955,-0.396,-0.3998,-0.3998,-0.3999,-0.4022,-0.4021,-0.4058,-0.4021,-0.4012,-0.4017,-0.4016,-0.4044,-0.4047,-0.4057,-0.4102,-0.4104,-0.4066,-0.4068,-0.4069,-0.4069,0,0,0,0,0,0,0,-0.3953,-0.3958,-0.4015,-0.3999,-0.3999,-0.3995,-0.3998,-0.4028,-0.4035,-0.4013,-0.4011,-0.4016,-0.4044,-0.4054,-0.4058,-0.4104,-0.4066,-0.4068,-0.407,-0.4071,-0.4186,-0.4187,0,0,0,0,0,0,-0.395,-0.3956,-0.4014,-0.4016,-0.3973,-0.3998,-0.4001,-0.4016,-0.4035,-0.4036,-0.4017,-0.4015,-0.405,-0.4054,-0.4059,-0.411,-0.4069,-0.4071,-0.4073,-0.4184,-0.4186,-0.4188,0,0,0,0,0,0,-0.3949,-0.3956,-0.4013,-0.3986,-0.3993,-0.4,-0.4017,-0.4017,-0.4027,-0.4038,-0.4039,-0.4026,-0.4049,-0.4055,-0.409,-0.4111,-0.4072,-0.4075,-0.4183,-0.4185,-0.4187,-0.4214,0,0,0,0,0,0,-0.3947,-0.3955,-0.3972,-0.3986,-0.3994,-0.4043,-0.4018,-0.4019,-0.4032,-0.403,-0.4047,-0.4048,-0.4049,-0.4086,-0.4093,-0.4114,-0.4077,-0.4181,-0.4184,-0.4186,-0.4211,-0.4217,-0.4221,0,0,0,0,0,-0.3944,-0.3978,-0.3973,-0.398,-0.4015,-0.4045,-0.4049,-0.4049,-0.4034,-0.405,-0.4057,-0.4048,-0.4108,-0.409,-0.4097,-0.412,-0.418,-0.4183,-0.4186,-0.4209,-0.4216,-0.4221,0,0,0,0,0,0,-0.3967,-0.398,-0.3974,-0.4014,-0.4028,-0.4042,-0.4063,-0.4056,-0.4075,-0.4072,-0.4071,-0.4075,-0.4111,-0.4119,-0.4099,-0.4162,-0.4141,-0.4146,-0.4156,-0.4163,-0.4168,-0.4166,-0.4079,0,0,0,0,0,-0.3976,-0.3999,-0.4009,-0.4044,-0.4051,-0.4056,-0.4069,-0.4067,-0.4081,-0.4088,-0.4097,-0.4111,-0.4133,-0.4148,-0.4169,-0.4211,-0.4215,-0.4231,-0.4236,-0.424,-0.4245,-0.4268,-0.4275,-0.4198,-0.4198,-0.4198,0,0,-0.3997,-0.4007,-0.4021,-0.4049,-0.4059,-0.4083,-0.4061,-0.4087,-0.4105,-0.4092,-0.4125,-0.4132,-0.4149,-0.4187,-0.4205,-0.4195,-0.4266,-0.4244,-0.4247,-0.425,-0.4272,-0.4279,-0.4285,-0.4201,-0.42,-0.42,0,0,-0.4046,-0.4055,-0.4085,-0.4096,-0.4112,-0.4115,-0.4122,-0.4136,-0.414,-0.4173,-0.4164,-0.4185,-0.4223,-0.4235,-0.4246,-0.4298,-0.4291,-0.4305,-0.4333,-0.4355,-0.4361,-0.4366,-0.4385,-0.4392,-0.4309,-0.4309,-0.4309,0,-0.4069,-0.4104,-0.4102,-0.4128,-0.4141,-0.4129,-0.4159,-0.417,-0.4192,-0.4201,-0.4189,-0.4236,-0.4246,-0.4287,-0.43,-0.4309,-0.4317,-0.4304,-0.436,-0.4365,-0.437,-0.4389,-0.4396,-0.4311,-0.4311,-0.4311,-0.431,0,-0.4133,-0.4157,-0.4179,-0.42,-0.4215,-0.4243,-0.4245,-0.426,-0.4256,-0.426,-0.4294,-0.4305,-0.4328,-0.4338,-0.4335,-0.4379,-0.4372,-0.436,-0.4339,-0.4379,-0.4397,-0.4404,-0.4313,-0.4313,-0.4312,-0.4312,0,0,-0.4199,-0.4217,-0.4226,-0.4235,-0.4251,-0.427,-0.4297,-0.4319,-0.4332,-0.4347,-0.4371,-0.4402,-0.4391,-0.4404,-0.4401,-0.4421,-0.4462,-0.4407,-0.4407,-0.4417,-0.4511,-0.4521,-0.4529,-0.4456,-0.4457,-0.4458,-0.451,0,-0.4251,-0.4298,-0.4296,-0.4341,-0.4363,-0.4352,-0.4375,-0.4388,-0.4392,-0.4411,-0.4415,-0.4438,-0.4421,-0.4429,-0.4447,-0.4453,-0.4481,-0.4449,-0.4478,-0.448,-0.4476,-0.4538,-0.4549,-0.4597,-0.4517,-0.4518,-0.4519,0,-0.4317,-0.4334,-0.4381,-0.4393,-0.4402,-0.4424,-0.4443,-0.4462,-0.4476,-0.4477,-0.449,-0.4485,-0.4512,-0.4489,-0.4528,-0.4506,-0.4517,-0.4522,-0.4524,-0.4528,-0.4503,-0.4545,-0.4612,-0.462,-0.4529,-0.4528,-0.4527,0,-0.4362,-0.4396,-0.4429,-0.4437,-0.4452,-0.4467,-0.4474,-0.4486,-0.4499,-0.4516,-0.4524,-0.4544,-0.4555,-0.4571,-0.457,-0.4554,-0.4609,-0.4586,-0.4612,-0.4612,-0.4625,-0.4625,-0.4697,-0.4631,-0.4631,-0.463,-0.463,0,-0.442,-0.445,-0.4449,-0.447,-0.4502,-0.4498,-0.4531,-0.4536,-0.4546,-0.4567,-0.4558,-0.4578,-0.4576,-0.4596,-0.4596,-0.4628,-0.4632,-0.4635,-0.4635,-0.4636,-0.4636,-0.4645,-0.4642,-0.4632,-0.4632,-0.4632,-0.4631,0,-0.4477,-0.4478,-0.4512,-0.4523,-0.4526,-0.455,-0.4559,-0.4578,-0.458,-0.4606,-0.4613,-0.4616,-0.4639,-0.464,-0.4667,-0.4666,-0.4705,-0.4701,-0.4701,-0.4701,-0.4726,-0.4724,-0.4808,-0.4819,-0.4744,-0.4745,-0.4745,0,-0.4515,-0.4537,-0.455,-0.4563,-0.457,-0.4592,-0.4604,-0.4601,-0.4615,-0.4631,-0.4649,-0.467,-0.4688,-0.4725,-0.473,-0.475,-0.4747,-0.4775,-0.475,-0.4751,-0.4749,-0.4748,-0.475,-0.478,-0.4781,-0.4782,-0.4782,0,-0.4582,-0.4581,-0.46,-0.4619,-0.4634,-0.4649,-0.4662,-0.4673,-0.4672,-0.4688,-0.4711,-0.4724,-0.475,-0.4772,-0.4792,-0.4799,-0.4791,-0.4789,-0.4797,-0.48,-0.4799,-0.48,-0.4715,-0.4788,-0.4788,-0.4787,-0.4787,-0.4787,-0.4631,-0.4651,-0.4662,-0.4683,-0.4693,-0.4705,-0.4724,-0.4727,-0.4746,-0.4768,-0.4764,-0.479,-0.4802,-0.4827,-0.4835,-0.4855,-0.4846,-0.4856,-0.4859,-0.4862,-0.4865,-0.4794,-0.4859,-0.4858,-0.4858,-0.4858,-0.4858,0,-0.4699,-0.4705,-0.4725,-0.4744,-0.476,-0.4749,-0.4763,-0.4778,-0.4801,-0.4812,-0.4829,-0.4855,-0.4876,-0.4882,-0.4902,-0.4917,-0.4914,-0.4923,-0.4922,-0.4924,-0.4872,-0.4864,-0.4925,-0.4925,-0.4925,-0.4925,-0.4925,-0.4925,-0.4736,-0.4768,-0.4768,-0.4804,-0.4811,-0.4835,-0.4844,-0.4856,-0.4865,-0.4895,-0.4912,-0.4915,-0.4924,-0.4945,-0.4963,-0.4965,-0.4973,-0.4984,-0.4983,-0.4935,-0.4928,-0.4922,-0.4914,-0.4985,-0.4985,-0.5034,-0.5035,-0.5035]},{"header":{"parameterUnit":"m.s-1","parameterCategory":1,"la1":30.2991,"la2":30.254,"lo1":-89.0895,"lo2":-89.0444,"dy":0.0017,"dx":0.0017,"nx":28,"ny":28,"refTime":"2025-01-06T03:00:00:Z","depth":0,"parameterNumber":3,"parameterNumberName":"V-component_of_WINDS"},"data":[0,0,0,0,0,0,0,0,0,0,0,0,0,0,0,0,0,0,0,0,0,0,0,0,0,0,0,0,0,0,0,0,0,0,0,0,0,0,0,0,0,0,0,0,0,0,0,0,0,0,0,0,0,0,0,0,0,0,-6.318,-6.3181,0,-6.3267,-6.3268,-6.3269,-6.3219,-6.3216,-6.3214,-6.3212,-6.3296,-6.3301,-6.3305,0,0,0,0,0,0,0,0,0,0,0,0,0,-6.2966,-6.297,-6.318,-6.3181,-6.3182,-6.3267,-6.3268,-6.3269,-6.3219,-6.3216,-6.3213,-6.3211,-6.3295,-6.33,-6.3306,0,0,0,0,0,0,0,0,0,0,0,0,0,-6.3056,-6.2971,-6.318,-6.3168,-6.3167,-6.3267,-6.3268,-6.327,-6.322,-6.3216,-6.3213,-6.3209,-6.3293,-6.33,-6.3306,-6.3421,0,0,-6.3327,-6.333,0,0,0,0,0,0,0,0,-6.3051,-6.3064,-6.3168,-6.3169,-6.3168,-6.3229,-6.3224,-6.332,-6.3221,-6.32,-6.3212,-6.3207,-6.3276,-6.3284,-6.3309,-6.3425,-6.3429,-6.3328,-6.3332,-6.3335,-6.3337,0,0,0,0,0,0,0,-6.3045,-6.306,-6.3214,-6.317,-6.317,-6.3156,-6.3165,-6.3242,-6.3257,-6.3201,-6.3198,-6.3209,-6.3276,-6.3302,-6.331,-6.343,-6.3327,-6.3333,-6.3338,-6.334,-6.3646,-6.365,0,0,0,0,0,0,-6.304,-6.3055,-6.3212,-6.3217,-6.31,-6.3163,-6.3173,-6.3213,-6.3256,-6.326,-6.3212,-6.3207,-6.3292,-6.3302,-6.3313,-6.3451,-6.3335,-6.3341,-6.3345,-6.3642,-6.3647,-6.3651,0,0,0,0,0,0,-6.3036,-6.3055,-6.3208,-6.3135,-6.3154,-6.3171,-6.3216,-6.3217,-6.3243,-6.3265,-6.3267,-6.3237,-6.329,-6.3303,-6.3395,-6.3453,-6.3344,-6.335,-6.3637,-6.3643,-6.3649,-6.3728,0,0,0,0,0,0,-6.303,-6.3053,-6.3098,-6.3137,-6.3158,-6.3291,-6.3219,-6.3221,-6.3255,-6.3249,-6.3288,-6.3291,-6.3288,-6.3385,-6.3402,-6.346,-6.3356,-6.3632,-6.364,-6.3647,-6.372,-6.3736,-6.3749,0,0,0,0,0,-6.3022,-6.3116,-6.3101,-6.312,-6.3215,-6.3294,-6.3306,-6.3302,-6.326,-6.3305,-6.3319,-6.329,-6.3444,-6.3395,-6.3413,-6.3475,-6.3628,-6.3638,-6.3646,-6.3714,-6.3733,-6.3749,0,0,0,0,0,0,-6.3082,-6.3121,-6.3105,-6.3214,-6.3251,-6.3285,-6.3342,-6.3322,-6.3371,-6.3362,-6.3353,-6.3363,-6.3459,-6.3476,-6.3421,-6.3589,-6.3529,-6.3543,-6.3574,-6.3593,-6.3607,-6.3601,-6.3361,0,0,0,0,0,-6.3109,-6.3171,-6.3201,-6.3294,-6.3314,-6.3325,-6.3359,-6.3353,-6.339,-6.3406,-6.3426,-6.3463,-6.3519,-6.3557,-6.361,-6.3722,-6.373,-6.3773,-6.3788,-6.38,-6.3811,-6.3872,-6.3891,-6.3681,-6.3681,-6.3681,0,0,-6.3163,-6.3191,-6.3231,-6.3307,-6.3335,-6.3399,-6.3338,-6.3408,-6.3455,-6.3416,-6.3504,-6.3521,-6.3561,-6.3663,-6.371,-6.368,-6.3871,-6.3811,-6.3821,-6.3826,-6.3883,-6.3903,-6.3921,-6.3687,-6.3686,-6.3685,0,0,-6.3294,-6.3323,-6.3404,-6.3434,-6.3478,-6.3485,-6.3504,-6.3542,-6.3552,-6.3641,-6.3613,-6.3667,-6.3765,-6.3795,-6.3823,-6.3966,-6.3941,-6.3984,-6.406,-6.4119,-6.4136,-6.415,-6.4202,-6.422,-6.3995,-6.3995,-6.3995,0,-6.3356,-6.3453,-6.3448,-6.3521,-6.3554,-6.3523,-6.3605,-6.3633,-6.3692,-6.3715,-6.3682,-6.3805,-6.3829,-6.3939,-6.3974,-6.3997,-6.4019,-6.3979,-6.4134,-6.4149,-6.4162,-6.4211,-6.423,-6.4,-6.4,-6.3999,-6.3999,0,-6.3526,-6.3593,-6.3653,-6.3713,-6.3753,-6.383,-6.3836,-6.3877,-6.3867,-6.3877,-6.3967,-6.3996,-6.4055,-6.408,-6.407,-6.4188,-6.4169,-6.4135,-6.4076,-6.4187,-6.4233,-6.4252,-6.4007,-6.4005,-6.4004,-6.4003,0,0,-6.3698,-6.3755,-6.3777,-6.3804,-6.385,-6.3901,-6.3976,-6.4035,-6.4071,-6.4112,-6.4174,-6.4258,-6.4227,-6.4259,-6.4252,-6.4304,-6.4416,-6.4264,-6.4265,-6.4292,-6.4548,-6.4573,-6.4595,-6.44,-6.4403,-6.4406,-6.4544,0,-6.3833,-6.3966,-6.3964,-6.4086,-6.4148,-6.4119,-6.4184,-6.4219,-6.423,-6.4283,-6.4294,-6.4354,-6.4309,-6.4328,-6.4378,-6.4392,-6.4467,-6.4382,-6.4456,-6.4459,-6.4448,-6.4619,-6.4646,-6.4775,-6.4562,-6.4565,-6.4567,0,-6.4008,-6.4058,-6.4187,-6.4225,-6.4251,-6.431,-6.4364,-6.4415,-6.4454,-6.4458,-6.4494,-6.4479,-6.4554,-6.4492,-6.4594,-6.4536,-6.4566,-6.4578,-6.4582,-6.4589,-6.4521,-6.4631,-6.4816,-6.4836,-6.4596,-6.4593,-6.4591,0,-6.4122,-6.422,-6.431,-6.4334,-6.438,-6.4423,-6.4443,-6.4479,-6.4514,-6.4561,-6.4584,-6.4638,-6.4667,-6.4709,-6.4708,-6.4664,-6.4812,-6.475,-6.4817,-6.4817,-6.485,-6.4848,-6.5043,-6.4869,-6.4868,-6.4868,-6.4868,0,-6.4273,-6.4353,-6.4362,-6.4418,-6.4506,-6.4502,-6.459,-6.4606,-6.4638,-6.4695,-6.4673,-6.4726,-6.4723,-6.4777,-6.4776,-6.4861,-6.4874,-6.4879,-6.4878,-6.4882,-6.4881,-6.4902,-6.4893,-6.4873,-6.4872,-6.4871,-6.487,0,-6.4414,-6.4424,-6.452,-6.4557,-6.4568,-6.4632,-6.4662,-6.4714,-6.4723,-6.4796,-6.4813,-6.4827,-6.4889,-6.4893,-6.4964,-6.4964,-6.5067,-6.5056,-6.5055,-6.5053,-6.512,-6.5114,-6.5336,-6.5365,-6.5171,-6.5173,-6.5174,0,-6.4511,-6.4572,-6.4616,-6.4654,-6.4678,-6.4738,-6.4775,-6.4773,-6.4812,-6.4861,-6.4907,-6.4968,-6.5016,-6.5117,-6.5133,-6.5187,-6.5177,-6.5251,-6.5185,-6.5187,-6.5179,-6.5176,-6.5182,-6.5264,-6.5266,-6.5268,-6.527,0,-6.4681,-6.4683,-6.4737,-6.4795,-6.484,-6.4884,-6.4925,-6.4956,-6.4959,-6.5004,-6.5069,-6.5106,-6.518,-6.5241,-6.5294,-6.5313,-6.5292,-6.529,-6.5309,-6.5313,-6.531,-6.5313,-6.5091,-6.5285,-6.5284,-6.5283,-6.5282,-6.5281,-6.4803,-6.4856,-6.4896,-6.4958,-6.4989,-6.5028,-6.5079,-6.5095,-6.515,-6.5211,-6.5206,-6.5278,-6.5314,-6.5384,-6.5408,-6.5463,-6.5437,-6.5464,-6.5471,-6.5477,-6.5485,-6.5301,-6.5472,-6.5472,-6.5471,-6.5471,-6.5471,0,-6.4972,-6.4996,-6.5054,-6.5113,-6.5161,-6.5139,-6.5183,-6.5224,-6.5289,-6.5325,-6.5374,-6.5448,-6.5506,-6.5527,-6.5583,-6.5623,-6.5615,-6.5638,-6.5635,-6.564,-6.5504,-6.5483,-6.5644,-6.5644,-6.5644,-6.5644,-6.5644,-6.5644,-6.5066,-6.5156,-6.5162,-6.5266,-6.5289,-6.5361,-6.5388,-6.5424,-6.5453,-6.5538,-6.5587,-6.56,-6.563,-6.5689,-6.5741,-6.5745,-6.5767,-6.5795,-6.5795,-6.5667,-6.565,-6.5633,-6.5613,-6.58,-6.58,-6.5927,-6.5928,-6.5929]}]]